Torna al catalogo

SL-19 R/B

AttivoPO
NORAD 36039·ROCKET BODY·🇷🇺 Russia

Lanciato Nov 2, 2009 da Plesetsk Cosmodrome

Loading…

Prossimi Passaggi (prossime 24 ore)

TLE

AggiornatoSource: Space-Track

Epoca: Sep 14, 2026, 04:42 UTC

1 36039U 09059D   26257.19600484  .00000893  00000-0  74834-4 0  9998
2 36039  98.3386 169.6260 0124259  72.3235 289.1506 14.95571101915926

Traccia SL-19 R/B in tempo reale con AllMySat

Download on the App Store